DLH777 SKBO-MROC

Flight info

Callsign DLH777
Flight time 1h 45m
Altitude 34000
Route DCT URODU UL423 ISEBA CUARE3I
Aircraft A339/M-V/N

Departure

Time 2026-04-26 23:40
Airport El Dorado International Airport (SKBO)

Arrival

Time 2026-04-27 01:25
Airport Juan Santamaría International Airport (MROC)
Time Latitude Longitude Altitude Speed Heading
2026-04-26 23:07 4.69263 -74.14060 8371 ft 0 kts 32°
2026-04-26 23:29 4.69243 -74.14073 8372 ft 4 kts 24°
2026-04-26 23:29 4.69218 -74.14083 8372 ft 4 kts
2026-04-26 23:30 4.69193 -74.14086 8372 ft 4 kts 343°
2026-04-26 23:30 4.69173 -74.14079 8372 ft 2 kts 306°
2026-04-26 23:30 4.69172 -74.14077 8372 ft 0 kts 305°
2026-04-26 23:33 4.69174 -74.14081 8372 ft 3 kts 305°
2026-04-26 23:34 4.69198 -74.14114 8372 ft 9 kts 305°
2026-04-26 23:34 4.69244 -74.14179 8372 ft 14 kts 305°
2026-04-26 23:34 4.69315 -74.14270 8371 ft 19 kts 309°
2026-04-26 23:34 4.69404 -74.14385 8371 ft 23 kts 306°
2026-04-26 23:35 4.69506 -74.14527 8370 ft 27 kts 306°
2026-04-26 23:35 4.69629 -74.14683 8371 ft 30 kts 309°
2026-04-26 23:35 4.69761 -74.14853 8371 ft 33 kts 307°
2026-04-26 23:35 4.69903 -74.15043 8370 ft 35 kts 306°
2026-04-26 23:36 4.70057 -74.15245 8370 ft 38 kts 308°
2026-04-26 23:36 4.70220 -74.15459 8370 ft 40 kts 306°
2026-04-26 23:36 4.70389 -74.15685 8369 ft 41 kts 308°
2026-04-26 23:36 4.70564 -74.15919 8369 ft 42 kts 309°
2026-04-26 23:37 4.70742 -74.16156 8369 ft 43 kts 306°
2026-04-26 23:37 4.70920 -74.16394 8369 ft 42 kts 307°
2026-04-26 23:37 4.71096 -74.16620 8368 ft 38 kts 308°
2026-04-26 23:37 4.71197 -74.16772 8368 ft 0 kts 272°
2026-04-26 23:38 4.71194 -74.16777 8368 ft 1 kts 257°
2026-04-26 23:38 4.71185 -74.16794 8368 ft 4 kts 241°
2026-04-26 23:38 4.71154 -74.16830 8368 ft 9 kts 225°
2026-04-26 23:38 4.71098 -74.16875 8367 ft 12 kts 216°
2026-04-26 23:39 4.71030 -74.16880 8367 ft 7 kts 148°
2026-04-26 23:39 4.70955 -74.16781 8367 ft 54 kts 125°
2026-04-26 23:39 4.70530 -74.16219 8371 ft 145 kts 127°
2026-04-26 23:39 4.69774 -74.15231 8467 ft 201 kts 127°
2026-04-26 23:40 4.68856 -74.14097 9265 ft 216 kts 130°
2026-04-26 23:40 4.67941 -74.12951 10498 ft 204 kts 126°
2026-04-26 23:40 4.67142 -74.11828 11635 ft 194 kts 125°
2026-04-26 23:40 4.66385 -74.10739 12680 ft 188 kts 125°
2026-04-26 23:41 4.65634 -74.09677 13690 ft 184 kts 126°
2026-04-26 23:41 4.64874 -74.08623 14229 ft 192 kts 126°
2026-04-26 23:41 4.64057 -74.07511 14243 ft 201 kts 127°
2026-04-26 23:41 4.63222 -74.06384 14196 ft 200 kts 127°
2026-04-26 23:42 4.62386 -74.05256 13930 ft 203 kts 127°
2026-04-26 23:42 4.60638 -74.02899 12918 ft 223 kts 127°
2026-04-26 23:42 4.59694 -74.01623 12346 ft 233 kts 127°
2026-04-26 23:43 4.58535 -74.00448 11589 ft 246 kts 148°
2026-04-26 23:43 4.56926 -73.99935 11367 ft 233 kts 184°
2026-04-26 23:43 4.55494 -74.00310 12682 ft 217 kts 201°
2026-04-26 23:43 4.54218 -74.01237 13196 ft 240 kts 231°
2026-04-26 23:44 4.53490 -74.02790 13856 ft 254 kts 260°
2026-04-26 23:44 4.53601 -74.04548 14645 ft 257 kts 288°
2026-04-26 23:44 4.54365 -74.06169 15466 ft 260 kts 300°
2026-04-26 23:44 4.55233 -74.07775 16227 ft 264 kts 296°
2026-04-26 23:45 4.55964 -74.09469 17059 ft 266 kts 290°
2026-04-26 23:45 4.56541 -74.11251 17877 ft 270 kts 286°
2026-04-26 23:45 4.57011 -74.13059 18651 ft 274 kts 284°
2026-04-26 23:45 4.57447 -74.14931 19334 ft 278 kts 283°
2026-04-26 23:46 4.57879 -74.16831 20025 ft 282 kts 283°
2026-04-26 23:46 4.58320 -74.18759 20732 ft 285 kts 283°
2026-04-26 23:46 4.58773 -74.20709 21413 ft 290 kts 283°
2026-04-26 23:46 4.59240 -74.22694 22087 ft 294 kts 283°
2026-04-26 23:47 4.59713 -74.24695 22665 ft 298 kts 283°
2026-04-26 23:47 4.60159 -74.26737 23212 ft 302 kts 279°
2026-04-26 23:47 4.60292 -74.28846 23790 ft 305 kts 268°
2026-04-26 23:47 4.60148 -74.30979 24280 ft 308 kts 265°
2026-04-26 23:48 4.60004 -74.33133 24774 ft 311 kts 266°
2026-04-26 23:48 4.59874 -74.35307 25264 ft 314 kts 266°
2026-04-26 23:48 4.59752 -74.37501 25739 ft 317 kts 266°
2026-04-26 23:48 4.59765 -74.39717 26179 ft 321 kts 279°
2026-04-26 23:49 4.60496 -74.41819 26669 ft 323 kts 300°
2026-04-26 23:49 4.61847 -74.43618 27143 ft 325 kts 310°
2026-04-26 23:49 4.63274 -74.45358 27594 ft 329 kts 309°
2026-04-26 23:49 4.64717 -74.47148 28072 ft 331 kts 309°
2026-04-26 23:50 4.66157 -74.48962 28532 ft 334 kts 308°
2026-04-26 23:50 4.67601 -74.50797 28985 ft 337 kts 308°
2026-04-26 23:50 4.69052 -74.52661 29442 ft 341 kts 306°
2026-04-26 23:50 4.70323 -74.54663 29914 ft 343 kts 301°
2026-04-26 23:51 4.71580 -74.56708 30329 ft 346 kts 299°
2026-04-26 23:51 4.72810 -74.58788 30731 ft 348 kts 301°
2026-04-26 23:51 4.74105 -74.60852 31155 ft 350 kts 302°
2026-04-26 23:51 4.75395 -74.62926 31563 ft 352 kts 301°
2026-04-26 23:52 4.76672 -74.65032 31979 ft 354 kts 300°
2026-04-26 23:52 4.77934 -74.67155 32380 ft 357 kts 300°
2026-04-26 23:52 4.79203 -74.69313 32781 ft 359 kts 299°
2026-04-26 23:52 4.80456 -74.71450 33182 ft 361 kts 299°
2026-04-26 23:53 4.81731 -74.73626 33565 ft 364 kts 299°
2026-04-26 23:53 4.83033 -74.75848 33875 ft 367 kts 299°
2026-04-26 23:53 4.85605 -74.80239 33983 ft 366 kts 299°
2026-04-26 23:54 4.88184 -74.84639 33983 ft 366 kts 299°
2026-04-26 23:54 4.90761 -74.89037 33974 ft 366 kts 299°
2026-04-26 23:55 4.93336 -74.93435 33975 ft 366 kts 299°
2026-04-26 23:55 4.95913 -74.97835 33974 ft 365 kts 299°
2026-04-26 23:56 4.98487 -75.02231 33983 ft 366 kts 298°
2026-04-26 23:56 5.01057 -75.06625 33998 ft 365 kts 298°
2026-04-26 23:57 5.03611 -75.10986 34014 ft 366 kts 298°
2026-04-26 23:57 5.06184 -75.15384 34044 ft 365 kts 298°
2026-04-26 23:58 5.08758 -75.19784 34162 ft 366 kts 298°
2026-04-26 23:58 5.11332 -75.24183 34191 ft 366 kts 298°
2026-04-26 23:59 5.12634 -75.26411 34204 ft 378 kts 298°
2026-04-26 23:59 5.13991 -75.28731 34212 ft 392 kts 298°
2026-04-26 23:59 5.15394 -75.31132 34223 ft 406 kts 298°
2026-04-26 23:59 5.16844 -75.33615 34223 ft 419 kts 299°
2026-04-27 00:00 5.18320 -75.36141 34228 ft 433 kts 299°
2026-04-27 00:00 5.19868 -75.38788 34226 ft 446 kts 299°
2026-04-27 00:00 5.21456 -75.41504 34222 ft 458 kts 299°
2026-04-27 00:00 5.23089 -75.44298 34213 ft 470 kts 299°
2026-04-27 00:01 5.24761 -75.47159 34201 ft 481 kts 299°
2026-04-27 00:01 5.26475 -75.50090 34185 ft 489 kts 299°
2026-04-27 00:01 5.29917 -75.55975 34148 ft 489 kts 299°
2026-04-27 00:02 5.33359 -75.61865 34099 ft 490 kts 299°
2026-04-27 00:02 5.36801 -75.67762 34074 ft 493 kts 299°
2026-04-27 00:03 5.40303 -75.73764 34071 ft 502 kts 299°
2026-04-27 00:03 5.43820 -75.79789 34060 ft 505 kts 299°
2026-04-27 00:04 5.47374 -75.85879 34064 ft 507 kts 299°
2026-04-27 00:04 5.50938 -75.91989 34063 ft 507 kts 299°
2026-04-27 00:05 5.54493 -75.98088 34065 ft 507 kts 299°
2026-04-27 00:05 5.58054 -76.04195 34064 ft 506 kts 299°
2026-04-27 00:06 5.61613 -76.10300 34058 ft 507 kts 298°
2026-04-27 00:06 5.65174 -76.16412 34056 ft 507 kts 298°
2026-04-27 00:07 5.68706 -76.22479 34039 ft 507 kts 298°
2026-04-27 00:07 5.72264 -76.28589 34036 ft 507 kts 298°
2026-04-27 00:08 5.75826 -76.34710 33980 ft 507 kts 298°
2026-04-27 00:08 5.79384 -76.40825 33933 ft 507 kts 298°
2026-04-27 00:09 5.82935 -76.46930 33902 ft 507 kts 298°
2026-04-27 00:09 5.86474 -76.53016 33888 ft 507 kts 298°
2026-04-27 00:10 5.90026 -76.59125 33888 ft 507 kts 298°
2026-04-27 00:10 5.93584 -76.65249 33910 ft 507 kts 298°
2026-04-27 00:11 5.97133 -76.71360 33935 ft 507 kts 298°
2026-04-27 00:11 6.00690 -76.77485 33972 ft 507 kts 298°
2026-04-27 00:12 6.04249 -76.83615 33985 ft 507 kts 298°
2026-04-27 00:12 6.07802 -76.89737 33984 ft 507 kts 298°
2026-04-27 00:13 6.11360 -76.95867 33983 ft 508 kts 298°
2026-04-27 00:13 6.14918 -77.02003 33983 ft 508 kts 298°
2026-04-27 00:14 6.18472 -77.08132 33957 ft 508 kts 298°
2026-04-27 00:14 6.22030 -77.14270 33940 ft 508 kts 299°
2026-04-27 00:15 6.25578 -77.20395 33920 ft 508 kts 299°
2026-04-27 00:15 6.29135 -77.26536 33902 ft 508 kts 299°
2026-04-27 00:16 6.32685 -77.32666 33896 ft 507 kts 299°
2026-04-27 00:16 6.36209 -77.38755 33899 ft 507 kts 299°
2026-04-27 00:17 6.39763 -77.44896 33907 ft 507 kts 299°
2026-04-27 00:17 6.43307 -77.51023 33917 ft 508 kts 299°
2026-04-27 00:18 6.46862 -77.57169 33932 ft 508 kts 299°
2026-04-27 00:18 6.50411 -77.63309 33931 ft 508 kts 299°
2026-04-27 00:19 6.53934 -77.69407 33930 ft 508 kts 299°
2026-04-27 00:19 6.57483 -77.75550 33921 ft 508 kts 299°
2026-04-27 00:20 6.61030 -77.81693 33913 ft 508 kts 299°
2026-04-27 00:20 6.64573 -77.87831 33909 ft 508 kts 299°
2026-04-27 00:21 6.68120 -77.93977 33907 ft 508 kts 299°
2026-04-27 00:21 6.71663 -78.00119 33905 ft 508 kts 299°
2026-04-27 00:22 6.75183 -78.06223 33904 ft 507 kts 299°
2026-04-27 00:22 6.78720 -78.12358 33902 ft 507 kts 299°
2026-04-27 00:23 6.82259 -78.18499 33903 ft 507 kts 299°
2026-04-27 00:23 6.85959 -78.24520 33897 ft 508 kts 307°
2026-04-27 00:24 6.90090 -78.30256 33892 ft 506 kts 299°
2026-04-27 00:24 6.93662 -78.36350 33900 ft 506 kts 300°
2026-04-27 00:25 6.97360 -78.42396 33894 ft 507 kts 300°
2026-04-27 00:25 7.00953 -78.48447 33901 ft 507 kts 299°
2026-04-27 00:26 7.04538 -78.54559 33900 ft 507 kts 299°
2026-04-27 00:26 7.08117 -78.60673 33902 ft 507 kts 299°
2026-04-27 00:27 7.11703 -78.66798 33899 ft 507 kts 299°
2026-04-27 00:27 7.15284 -78.72916 33900 ft 507 kts 299°
2026-04-27 00:28 7.18837 -78.78988 33896 ft 507 kts 299°
2026-04-27 00:28 7.22420 -78.85115 33898 ft 507 kts 299°
2026-04-27 00:29 7.26000 -78.91238 33898 ft 507 kts 298°
2026-04-27 00:29 7.29574 -78.97354 33898 ft 507 kts 298°
2026-04-27 00:30 7.33152 -79.03479 33894 ft 507 kts 298°
2026-04-27 00:30 7.36124 -79.08569 33892 ft 507 kts 298°
2026-04-27 00:31 7.40274 -79.15679 33889 ft 507 kts 298°
2026-04-27 00:31 7.43844 -79.21798 33894 ft 507 kts 298°
2026-04-27 00:32 7.46816 -79.26892 33890 ft 507 kts 298°
2026-04-27 00:32 7.50385 -79.33013 33894 ft 507 kts 298°
2026-04-27 00:33 7.53954 -79.39135 33893 ft 506 kts 298°
2026-04-27 00:33 7.58098 -79.46249 33891 ft 506 kts 298°
2026-04-27 00:34 7.61082 -79.51374 33896 ft 506 kts 298°
2026-04-27 00:34 7.64648 -79.57499 33886 ft 507 kts 298°
2026-04-27 00:35 7.68189 -79.63583 33892 ft 506 kts 298°
2026-04-27 00:35 7.71749 -79.69704 33889 ft 506 kts 298°
2026-04-27 00:36 7.75313 -79.75834 33894 ft 506 kts 298°
2026-04-27 00:36 7.78872 -79.81957 33893 ft 506 kts 298°
2026-04-27 00:37 7.82430 -79.88081 33894 ft 506 kts 298°
2026-04-27 00:37 7.85958 -79.94156 33890 ft 505 kts 298°
2026-04-27 00:38 7.89507 -80.00271 33899 ft 505 kts 298°
2026-04-27 00:38 7.93047 -80.06373 33897 ft 504 kts 298°
2026-04-27 00:39 7.96592 -80.12487 33895 ft 504 kts 298°
2026-04-27 00:39 8.00098 -80.18535 33900 ft 504 kts 298°
2026-04-27 00:40 8.03660 -80.24681 33901 ft 503 kts 298°
2026-04-27 00:40 8.07165 -80.30733 33902 ft 502 kts 298°
2026-04-27 00:41 8.10682 -80.36808 33897 ft 502 kts 298°
2026-04-27 00:41 8.14201 -80.42889 33903 ft 501 kts 298°
2026-04-27 00:42 8.17719 -80.48970 33905 ft 501 kts 298°
2026-04-27 00:42 8.21226 -80.55037 33906 ft 501 kts 298°
2026-04-27 00:43 8.24735 -80.61109 33913 ft 500 kts 298°
2026-04-27 00:43 8.28221 -80.67142 33918 ft 500 kts 298°
2026-04-27 00:44 8.31725 -80.73211 33920 ft 500 kts 298°
2026-04-27 00:44 8.35222 -80.79270 33926 ft 500 kts 298°
2026-04-27 00:45 8.38718 -80.85331 33931 ft 500 kts 298°
2026-04-27 00:45 8.39358 -80.86441 33931 ft 500 kts 298°
2026-04-27 00:46 8.40894 -80.89104 33934 ft 499 kts 298°
2026-04-27 00:46 8.44378 -80.95147 33931 ft 499 kts 298°
2026-04-27 00:47 8.47873 -81.01213 33936 ft 499 kts 298°
2026-04-27 00:47 8.51342 -81.07236 33936 ft 499 kts 298°
2026-04-27 00:48 8.54823 -81.13282 33940 ft 498 kts 298°
2026-04-27 00:48 8.58308 -81.19337 33930 ft 499 kts 298°
2026-04-27 00:49 8.61793 -81.25395 33963 ft 498 kts 298°
2026-04-27 00:49 8.65224 -81.31358 33940 ft 485 kts 298°
2026-04-27 00:50 8.70320 -81.40229 33937 ft 486 kts 298°
2026-04-27 00:51 8.73685 -81.46088 33941 ft 485 kts 298°
2026-04-27 00:51 8.77071 -81.51989 33941 ft 485 kts 298°
2026-04-27 00:52 8.80449 -81.57875 33930 ft 484 kts 298°
2026-04-27 00:52 8.83813 -81.63740 33918 ft 484 kts 298°
2026-04-27 00:53 8.87186 -81.69625 33917 ft 483 kts 298°
2026-04-27 00:53 8.90553 -81.75501 33925 ft 483 kts 298°
2026-04-27 00:54 8.93916 -81.81372 33924 ft 482 kts 298°
2026-04-27 00:54 8.97278 -81.87246 33923 ft 482 kts 298°
2026-04-27 00:55 9.00613 -81.93075 33914 ft 482 kts 298°
2026-04-27 00:55 9.03968 -81.98941 33904 ft 482 kts 298°
2026-04-27 00:56 9.07324 -82.04810 33926 ft 481 kts 298°
2026-04-27 00:56 9.10675 -82.10674 33904 ft 481 kts 298°
2026-04-27 00:57 9.14027 -82.16543 33913 ft 481 kts 298°
2026-04-27 00:57 9.17376 -82.22409 33910 ft 482 kts 298°
2026-04-27 00:58 9.20704 -82.28241 33912 ft 482 kts 298°
2026-04-27 00:58 9.24053 -82.34112 33931 ft 481 kts 298°
2026-04-27 00:59 9.27398 -82.39981 33912 ft 482 kts 298°
2026-04-27 00:59 9.30744 -82.45852 33939 ft 481 kts 298°
2026-04-27 01:00 9.34086 -82.51721 33918 ft 481 kts 298°
2026-04-27 01:00 9.37425 -82.57587 33942 ft 481 kts 298°
2026-04-27 01:01 9.40766 -82.63458 33921 ft 481 kts 298°
2026-04-27 01:01 9.44099 -82.69317 33938 ft 480 kts 298°
2026-04-27 01:02 9.47436 -82.75184 33942 ft 480 kts 298°
2026-04-27 01:02 9.50741 -82.80999 33945 ft 480 kts 298°
2026-04-27 01:03 9.53805 -82.86985 33933 ft 477 kts 290°
2026-04-27 01:03 9.55785 -82.93369 33909 ft 473 kts 282°
2026-04-27 01:03 9.56548 -82.96431 34809 ft 469 kts 284°
2026-04-27 01:04 9.57346 -82.99553 32820 ft 466 kts 283°
2026-04-27 01:04 9.58162 -83.02740 31643 ft 472 kts 283°
2026-04-27 01:04 9.58983 -83.05964 30533 ft 474 kts 283°
2026-04-27 01:04 9.59801 -83.09176 29624 ft 469 kts 283°
2026-04-27 01:05 9.60625 -83.12350 28709 ft 462 kts 285°
2026-04-27 01:05 9.61664 -83.15418 27805 ft 457 kts 289°
2026-04-27 01:05 9.62746 -83.18428 26916 ft 452 kts 289°
2026-04-27 01:05 9.63810 -83.21407 26069 ft 447 kts 289°
2026-04-27 01:06 9.64857 -83.24350 25206 ft 442 kts 289°
2026-04-27 01:06 9.65890 -83.27263 24379 ft 437 kts 290°
2026-04-27 01:06 9.66901 -83.30112 23558 ft 433 kts 290°
2026-04-27 01:06 9.67914 -83.32966 22633 ft 428 kts 290°
2026-04-27 01:07 9.68927 -83.35816 21753 ft 421 kts 290°
2026-04-27 01:07 9.69898 -83.38554 20875 ft 415 kts 290°
2026-04-27 01:07 9.70870 -83.41292 19987 ft 410 kts 290°
2026-04-27 01:07 9.71827 -83.43988 19116 ft 404 kts 290°
2026-04-27 01:08 9.72773 -83.46656 18220 ft 399 kts 290°
2026-04-27 01:08 9.73704 -83.49283 17267 ft 394 kts 290°
2026-04-27 01:08 9.74486 -83.51894 16524 ft 386 kts 283°
2026-04-27 01:08 9.74863 -83.54615 16189 ft 389 kts 274°
2026-04-27 01:09 9.74843 -83.57340 15743 ft 385 kts 266°
2026-04-27 01:09 9.74630 -83.60031 15265 ft 382 kts 266°
2026-04-27 01:09 9.74424 -83.62723 15089 ft 383 kts 266°
2026-04-27 01:09 9.74227 -83.65380 15026 ft 384 kts 266°
2026-04-27 01:10 9.74031 -83.68069 15033 ft 383 kts 266°
2026-04-27 01:10 9.73838 -83.70775 15028 ft 383 kts 266°
2026-04-27 01:10 9.73649 -83.73448 14991 ft 376 kts 266°
2026-04-27 01:10 9.73464 -83.76039 14879 ft 362 kts 266°
2026-04-27 01:11 9.73287 -83.78519 14717 ft 343 kts 266°
2026-04-27 01:11 9.73119 -83.80855 14534 ft 322 kts 266°
2026-04-27 01:11 9.72960 -83.83087 14001 ft 314 kts 266°
2026-04-27 01:11 9.72804 -83.85279 13318 ft 311 kts 266°
2026-04-27 01:12 9.72644 -83.87450 12624 ft 308 kts 266°
2026-04-27 01:12 9.72483 -83.89560 12212 ft 303 kts 266°
2026-04-27 01:12 9.72316 -83.91711 12066 ft 306 kts 266°
2026-04-27 01:12 9.72151 -83.93851 12029 ft 305 kts 266°
2026-04-27 01:13 9.71985 -83.96006 12024 ft 306 kts 266°
2026-04-27 01:13 9.71819 -83.98158 12024 ft 305 kts 266°
2026-04-27 01:13 9.71654 -84.00291 11795 ft 303 kts 266°
2026-04-27 01:13 9.71491 -84.02407 11328 ft 300 kts 266°
2026-04-27 01:14 9.71329 -84.04508 10691 ft 297 kts 266°
2026-04-27 01:14 9.71170 -84.06574 10247 ft 293 kts 266°
2026-04-27 01:14 9.71008 -84.08658 10084 ft 297 kts 266°
2026-04-27 01:14 9.70849 -84.10712 10025 ft 296 kts 266°
2026-04-27 01:15 9.70687 -84.12794 10016 ft 296 kts 266°
2026-04-27 01:15 9.70526 -84.14873 10014 ft 297 kts 266°
2026-04-27 01:15 9.70364 -84.16959 10010 ft 297 kts 266°
2026-04-27 01:15 9.70202 -84.19042 10007 ft 297 kts 266°
2026-04-27 01:16 9.70042 -84.21129 10003 ft 296 kts 266°
2026-04-27 01:16 9.70141 -84.23208 10002 ft 296 kts 280°
2026-04-27 01:16 9.70756 -84.25194 9999 ft 295 kts 295°
2026-04-27 01:16 9.71627 -84.27077 9995 ft 296 kts 295°
2026-04-27 01:17 9.72487 -84.28967 9994 ft 296 kts 295°
2026-04-27 01:17 9.73323 -84.30843 9994 ft 296 kts 295°
2026-04-27 01:17 9.74161 -84.32746 9994 ft 296 kts 294°
2026-04-27 01:17 9.74996 -84.34652 9991 ft 296 kts 294°
2026-04-27 01:18 9.75826 -84.36553 9990 ft 290 kts 294°
2026-04-27 01:18 9.76602 -84.38332 9983 ft 262 kts 294°
2026-04-27 01:18 9.77303 -84.39937 9979 ft 236 kts 294°
2026-04-27 01:18 9.77938 -84.41392 9977 ft 217 kts 294°
2026-04-27 01:19 9.78551 -84.42792 9979 ft 220 kts 294°
2026-04-27 01:19 9.79315 -84.44115 9933 ft 216 kts 314°
2026-04-27 01:19 9.80560 -84.44909 9714 ft 213 kts 343°
2026-04-27 01:19 9.82031 -84.44939 9370 ft 214 kts 15°
2026-04-27 01:20 9.83347 -84.44309 9083 ft 213 kts 32°
2026-04-27 01:20 9.84585 -84.43487 8794 ft 212 kts 34°
2026-04-27 01:20 9.85831 -84.42687 8492 ft 212 kts 31°
2026-04-27 01:20 9.87114 -84.41961 8225 ft 210 kts 28°
2026-04-27 01:21 9.88418 -84.41298 7963 ft 210 kts 26°
2026-04-27 01:21 9.89733 -84.40667 7713 ft 209 kts 25°
2026-04-27 01:21 9.91046 -84.40052 7472 ft 208 kts 25°
2026-04-27 01:21 9.92302 -84.39341 7176 ft 208 kts 41°
2026-04-27 01:22 9.93093 -84.38135 6929 ft 206 kts 68°
2026-04-27 01:22 9.93571 -84.36776 6584 ft 211 kts 71°
2026-04-27 01:22 9.94037 -84.35338 6197 ft 215 kts 71°
2026-04-27 01:22 9.94513 -84.33913 5839 ft 217 kts 71°
2026-04-27 01:23 9.95017 -84.32433 5265 ft 225 kts 71°
2026-04-27 01:23 9.95517 -84.30989 4821 ft 204 kts 71°
2026-04-27 01:23 9.95990 -84.29750 4570 ft 175 kts 67°
2026-04-27 01:23 9.96470 -84.28683 4264 ft 160 kts 65°
2026-04-27 01:24 9.96910 -84.27697 3996 ft 147 kts 67°
2026-04-27 01:24 9.97242 -84.26747 3900 ft 143 kts 73°
2026-04-27 01:24 9.97519 -84.25789 3832 ft 141 kts 72°
2026-04-27 01:24 9.97875 -84.24870 3594 ft 141 kts 67°
2026-04-27 01:25 9.98250 -84.23967 3388 ft 140 kts 69°
2026-04-27 01:25 9.98574 -84.23057 3174 ft 140 kts 69°
2026-04-27 01:25 9.98911 -84.22145 2982 ft 132 kts 70°
2026-04-27 01:25 9.99154 -84.21499 2983 ft 38 kts 68°
2026-04-27 01:26 9.99173 -84.21453 2985 ft 0 kts 67°
2026-04-27 01:26 9.99183 -84.21427 2986 ft 11 kts 67°
2026-04-27 01:26 9.99216 -84.21324 2989 ft 19 kts 86°
2026-04-27 01:27 9.99262 -84.21204 2995 ft 22 kts 53°
2026-04-27 01:27 9.99313 -84.21166 2997 ft 5 kts 16°
2026-04-27 01:27 9.99338 -84.21164 2998 ft 3 kts
2026-04-27 01:27 9.99386 -84.21134 3000 ft 12 kts 49°
2026-04-27 01:28 9.99408 -84.21093 3001 ft 3 kts 66°
2026-04-27 01:28 9.99416 -84.21074 3002 ft 8 kts 66°
2026-04-27 01:28 9.99426 -84.21052 3003 ft 4 kts 66°
2026-04-27 01:28 9.99400 -84.21111 3001 ft 12 kts 68°
2026-04-27 01:29 9.99368 -84.21164 2998 ft 0 kts 13°
2026-04-27 01:29 9.99406 -84.21177 2998 ft 13 kts 340°
2026-04-27 01:29 9.99497 -84.21191 3000 ft 0 kts 18°
2026-04-27 01:29 9.99533 -84.21158 3001 ft 13 kts 52°
2026-04-27 01:30 9.99533 -84.21136 3002 ft 3 kts 102°
2026-04-27 01:30 9.99490 -84.21107 3002 ft 0 kts 161°
2026-04-27 01:30 9.99481 -84.21104 3002 ft 0 kts 161°